GW5243 Weather Reports


Display with metric or nautical units.
time (UTC)temp
F
wind
direction
speed
MPH
gust
MPH
rain 1hr
in
rain 24hr
in
rain mn
in
humidity
%
barometer
mb
20260505230025 61 223 0.0 2.0 0.00 0.01 0.01 88 1006.5
20260505224533 62 64 0.0 2.0 0.00 0.01 0.01 84 1006.1
20260505223020 61 38 0.0 5.0 0.01 0.01 0.01 83 1006.1
20260505221526 61 286 0.0 2.0 0.01 0.01 0.01 84 1005.5
20260505220012 62 228 0.0 2.0 0.01 0.01 0.01 84 1004.9
20260505214516 63 43 1.0 6.0 0.01 0.01 0.01 79 1004.4
20260505213020 64 115 2.0 8.0 0.00 0.00 0.00 74 1004.6
20260505211536 68 43 7.0 41.0 0.00 0.00 0.00 58 1005.1
20260505210026 78 114 5.0 18.0 0.00 0.00 0.00 34 1002.9
20260505204514 78 269 5.0 12.0 0.00 0.00 0.00 34 1002.6
20260505203020 78 205 4.0 12.0 0.00 0.00 0.00 34 1002.7
20260505201521 77 235 6.0 15.0 0.00 0.00 0.00 35 1002.7
20260505200027 77 313 5.0 19.0 0.00 0.00 0.00 38 1002.9
20260505194512 77 222 3.0 15.0 0.00 0.00 0.00 38 1002.8
20260505193015 78 309 5.0 15.0 0.00 0.00 0.00 35 1003.1
20260505191522 79 226 5.0 17.0 0.00 0.00 0.00 35 1003.2
20260505190024 78 173 4.0 21.0 0.00 0.00 0.00 34 1003.4
20260505184542 79 252 4.0 18.0 0.00 0.00 0.00 35 1003.5
20260505183014 80 274 5.0 14.0 0.00 0.00 0.00 34 1003.8
20260505181520 78 266 2.0 17.0 0.00 0.00 0.00 38 1003.8
20260505180021 77 314 4.0 16.0 0.00 0.00 0.00 38 1004.1
20260505174527 77 239 7.0 16.0 0.00 0.00 0.00 39 1004.4
20260505173028 76 246 4.0 17.0 0.00 0.00 0.00 39 1004.5
20260505171517 77 304 3.0 12.0 0.00 0.00 0.00 40 1004.6
20260505170032 78 282 3.0 11.0 0.00 0.00 0.00 39 1004.9
20260505164528 77 272 4.0 13.0 0.00 0.00 0.00 41 1005.0
20260505163028 76 157 5.0 11.0 0.00 0.00 0.00 41 1005.3
20260505161526 76 222 5.0 12.0 0.00 0.00 0.00 41 1005.7
20260505153025 73 257 3.0 7.0 0.00 0.00 0.00 45 1006.7
20260505151534 73 273 5.0 10.0 0.00 0.00 0.00 49 1007.1
20260505124518 59 277 0.0 2.0 0.00 0.00 0.00 63 1007.2
20260505123024 59 217 0.0 3.0 0.00 0.00 0.00 63 1007.1
20260505121525 60 143 2.0 7.0 0.00 0.00 0.00 59 1006.9
20260505120030 60 96 1.0 7.0 0.00 0.00 0.00 62 1007.4
20260505114517 58 336 1.0 3.0 0.00 0.00 0.00 61 1007.4
20260505113037 56 224 3.0 8.0 0.00 0.00 0.00 63 1007.4
20260505111538 55 293 2.0 9.0 0.00 0.00 0.00 66 1007.4
20260505101524 0 0.0 0.0 0.00 0.00 0.00 1007.0
20260505100016 0 0.0 0.0 0.00 0.00 0.00 1007.0
20260505094517 0 0.0 0.0 0.00 0.00 0.00 1007.0
20260505093016 0 0.0 0.0 0.00 0.00 0.00 1007.0
20260505091516 0 0.0 0.0 0.00 0.00 0.00 1007.2
20260505090023 0 0.0 0.0 0.00 0.00 0.00 1007.3
20260505084526 0 0.0 0.0 0.00 0.00 0.00 1007.3
20260505083019 0 0.0 0.0 0.00 0.00 0.00 1007.3
20260505081521 0 0.0 0.0 0.00 0.00 0.00 1007.4
20260505080028 0 0.0 0.0 0.00 0.00 0.00 1007.3
20260505074508 0 318 1.0 3.0 0.00 0.00 0.00 69 1007.3
20260505073015 51 215 1.0 10.0 0.00 0.00 0.00 70 1007.4
20260505071519 50 312 3.0 10.0 0.00 0.00 0.00 72 1007.6
20260505070003 49 240 0.0 2.0 0.00 0.00 0.00 74 1007.7
20260505064511 50 318 1.0 2.0 0.00 0.00 0.00 72 1007.7
20260505063011 50 287 0.0 2.0 0.00 0.00 0.00 71 1007.9
20260505061514 51 80 0.0 2.0 0.00 0.00 0.00 71 1008.0
20260505060021 52 292 0.0 4.0 0.00 0.00 0.00 68 1008.0
20260505054507 51 269 1.0 5.0 0.00 0.00 0.00 69 1008.0
20260505053009 51 294 1.0 3.0 0.00 0.00 0.00 69 1008.0
20260505051512 51 320 1.0 5.0 0.00 0.00 0.00 69 1008.0
20260505041513 54 317 0.0 3.0 0.00 0.00 0.00 63 1007.7
20260505040030 54 309 0.0 4.0 0.00 0.00 0.00 63 1007.5
20260505034533 53 281 0.0 3.0 0.00 0.00 0.00 64 1007.4
20260505033024 55 341 1.0 3.0 0.00 0.00 0.00 61 1007.4
20260505031508 54 247 1.0 5.0 0.00 0.00 0.00 61 1007.4
20260505030016 53 221 1.0 6.0 0.00 0.00 0.00 62 1007.3
20260505024518 52 279 0.0 2.0 0.00 0.00 0.00 62 1007.3
20260505023022 51 312 0.0 2.0 0.00 0.00 0.00 69 1007.2
20260505021524 51 237 0.0 1.0 0.00 0.00 0.00 70 1007.3
20260505020012 51 234 0.0 2.0 0.00 0.00 0.00 68 1007.1
20260505014516 51 221 0.0 2.0 0.00 0.00 0.00 67 1007.1
20260505013017 52 221 0.0 1.0 0.00 0.00 0.00 66 1007.1
20260505011521 53 221 0.0 2.0 0.00 0.00 0.00 65 1007.0
20260505010027 54 242 0.0 2.0 0.00 0.00 0.00 64 1007.0
20260505004517 54 240 0.0 2.0 0.00 0.00 0.00 61 1006.8
20260505003017 55 300 0.0 2.0 0.00 0.00 0.00 62 1006.7
20260505001522 58 294 0.0 2.0 0.00 0.00 0.00 47 1006.4
20260505000038 61 271 0.0 3.0 0.00 0.00 0.00 44 1006.2
20260504234528 63 129 1.0 4.0 0.00 0.00 0.00 43 1005.9
20260504233016 64 160 0.0 5.0 0.00 0.00 0.00 43 1005.7
20260504231517 64 180 1.0 4.0 0.00 0.00 0.00 40 1005.5